TimeCST,TemperatureF,Dew PointF,Humidity,Sea Level PressureIn,VisibilityMPH,Wind Direction,Wind SpeedMPH,Gust SpeedMPH,PrecipitationIn,Events,Conditions,WindDirDegrees,DateUTC
12:54 AM,35.1,30.9,85,30.18,10.0,ENE,4.6,-,N/A,,Clear,60,2012-12-06 06:54:00
1:54 AM,35.1,30.0,82,30.19,10.0,ENE,5.8,-,N/A,,Clear,60,2012-12-06 07:54:00
2:54 AM,36.0,30.9,82,30.17,10.0,ENE,3.5,-,N/A,,Clear,70,2012-12-06 08:54:00
3:54 AM,32.0,28.9,88,30.16,10.0,NE,6.9,-,N/A,,Clear,50,2012-12-06 09:54:00
4:54 AM,33.1,28.9,85,30.15,10.0,NE,5.8,-,N/A,,Clear,50,2012-12-06 10:54:00
5:54 AM,33.1,28.9,85,30.16,10.0,NE,4.6,-,N/A,,Clear,40,2012-12-06 11:54:00
6:54 AM,35.1,30.9,85,30.15,10.0,ENE,3.5,-,N/A,,Overcast,70,2012-12-06 12:54:00
7:54 AM,37.9,33.1,83,30.14,10.0,Calm,Calm,-,N/A,,Overcast,0,2012-12-06 13:54:00
8:54 AM,-9999,-9999,N/A,30.13,-9999.0,North,-9999.0,-,N/A,,Unknown,0,2012-12-06 14:54:00
9:54 AM,-9999,-9999,N/A,30.11,-9999.0,North,-9999.0,-,N/A,,Unknown,0,2012-12-06 15:54:00
10:54 AM,48.0,37.0,66,30.09,10.0,SE,5.8,-,N/A,,Mostly Cloudy,140,2012-12-06 16:54:00
11:54 AM,50.0,39.0,66,30.06,10.0,Calm,Calm,-,N/A,,Overcast,0,2012-12-06 17:54:00
12:54 PM,51.1,39.9,66,30.04,10.0,SE,3.5,-,N/A,,Overcast,130,2012-12-06 18:54:00
1:14 PM,51.8,41.0,67,30.03,7.0,SE,5.8,-,0.00,Rain,Light Rain,140,2012-12-06 19:14:00
1:54 PM,51.1,43.0,74,30.03,10.0,SE,3.5,-,0.00,,Overcast,130,2012-12-06 19:54:00
2:09 PM,51.8,42.8,71,30.02,10.0,ESE,3.5,-,N/A,,Overcast,120,2012-12-06 20:09:00
2:54 PM,52.0,43.0,71,30.02,10.0,ESE,3.5,-,N/A,,Overcast,110,2012-12-06 20:54:00
3:45 PM,51.8,44.6,76,30.01,10.0,SE,4.6,-,N/A,,Overcast,130,2012-12-06 21:45:00
3:54 PM,52.0,44.1,74,30.01,10.0,SE,4.6,-,N/A,,Overcast,140,2012-12-06 21:54:00
4:54 PM,51.1,44.1,77,30.00,10.0,ESE,4.6,-,N/A,,Overcast,120,2012-12-06 22:54:00
5:54 PM,50.0,46.0,86,30.01,5.0,SE,3.5,-,0.00,Rain,Light Rain,130,2012-12-06 23:54:00
6:17 PM,50.0,46.4,87,30.00,5.0,Calm,Calm,-,N/A,Rain,Light Rain,0,2012-12-07 00:17:00
6:42 PM,50.0,46.4,87,30.00,4.0,SE,3.5,-,0.01,Rain,Light Rain,140,2012-12-07 00:42:00
6:54 PM,50.0,46.9,89,30.01,4.0,SE,5.8,-,0.01,Rain,Light Rain,140,2012-12-07 00:54:00
7:19 PM,50.0,48.2,94,30.00,5.0,SSE,4.6,-,0.00,Rain,Light Rain,160,2012-12-07 01:19:00
7:46 PM,50.0,48.2,94,30.00,4.0,SSE,4.6,-,0.00,Rain,Light Rain,150,2012-12-07 01:46:00
7:54 PM,50.0,48.0,93,30.01,5.0,SSE,5.8,-,0.00,,Overcast,160,2012-12-07 01:54:00
8:25 PM,51.8,48.2,88,29.99,4.0,Calm,Calm,-,0.00,Rain,Light Rain,0,2012-12-07 02:25:00
8:32 PM,51.8,48.2,88,29.99,5.0,SE,3.5,-,0.00,,Overcast,130,2012-12-07 02:32:00
8:54 PM,50.0,48.0,93,29.99,4.0,Calm,Calm,-,0.00,,Overcast,0,2012-12-07 02:54:00
9:30 PM,50.0,48.2,94,29.99,3.0,Calm,Calm,-,N/A,,Overcast,0,2012-12-07 03:30:00
9:38 PM,50.0,48.2,94,29.99,3.0,Calm,Calm,-,N/A,,Overcast,0,2012-12-07 03:38:00
9:45 PM,50.0,48.2,94,29.99,3.0,Calm,Calm,-,N/A,,Overcast,0,2012-12-07 03:45:00
9:54 PM,50.0,48.0,93,29.99,4.0,Calm,Calm,-,N/A,,Overcast,0,2012-12-07 03:54:00
10:54 PM,51.1,48.0,89,29.99,4.0,Calm,Calm,-,N/A,,Overcast,0,2012-12-07 04:54:00
11:54 PM,51.1,48.0,89,29.99,3.0,Calm,Calm,-,0.00,,Overcast,0,2012-12-07 05:54:00